Other Public Products
Issued by NWS Grand Forks, ND

Home | Current Version | Previous Version | Text Only | Print | Product List | Glossary On
Versions: 1 2 3 4 5 6 7 8 9 10 11 12 13 14 15 16 17 18 19 20 21 22 23 24 25 26 27 28 29 30 31 32 33 34 35 36 37 38 39 40 41 42 43 44 45 46 47 48 49 50
000
FPUS83 KFGF 281431
OPUFGF
PRAIRIE TO PINES WEATHER ROUNDUP
NATIONAL WEATHER SERVICE EASTERN NORTH DAKOTA/GRAND FORKS ND
900 AM CDT MON JUL 28 2014

 **SATELLITE DATA USED TO AUGMENT SKY COVER AT AUTOMATED STATIONS**
 *****  WEATHER ACROSS EASTERN NORTH DAKOTA  *****

CITY           SKY/WX    TMP DP  RH WIND       PRES   REMARKS
GRAND FORKS    CLOUDY    62  55  77 NW7       30.27S
GRAND FORKS AF CLOUDY    62  57  83 NW8       30.29R
GRAND CITY NWS   N/A     63 N/A N/A NW6         N/A
BUXTON           N/A     63  60  89 NW9         N/A
DEVILS LAKE    SUNNY     63  54  72 NW9       30.31S
FARGO          CLOUDY    62  56  80 NW7       30.28R
WAHPETON ARPT  CLOUDY    61  54  77 N8        30.28S
$$

 *****  WEATHER ACROSS CENTRAL AND WESTERN NORTH DAKOTA  *****

CITY           SKY/WX    TMP DP  RH WIND       PRES   REMARKS
JAMESTOWN      PTSUNNY   61  54  77 N7        30.32S
BISMARCK       SUNNY     59  51  75 CALM      30.35S
MINOT          MOSUNNY   62  53  72 VRB3      30.33S
MINOT AFB      MOSUNNY   59  58  94 VRB1      30.33R
GARRISON         N/A     60  57  89 CALM      30.34R
WILLISTON      SUNNY     61  53  75 SE3       30.33R
DICKINSON      SUNNY     60  53  77 S10       30.33S
HETTINGER      SUNNY     59  52  77 S3        30.36S
$$

 *****  OTHER OBSERVATIONS NORTHEAST NORTH DAKOTA  *****

CITY           SKY/WX    TMP DP  RH WIND       PRES   REMARKS
WALHALLA         N/A     63  59  88 NW6         N/A
LANGDON        FAIR      61  55  82 NW5       30.31S
CAVALIER       FAIR      63  55  77 NW9       30.29R
GRAFTON        FAIR      63  55  77 N6        30.29R
CANDO          FAIR      63  55  77 NW6       30.33S
FORT TOTTEN      N/A     64  60  86 NW3       29.95S
ROLLA          FAIR      63  54  72 NW7       30.34S
RUGBY          FAIR      57  57 100 NW3       30.33S
 ***** THE ABOVE OBSERVATIONS ARE NON NWS ARE NOT QUALITY
        CONTROLLED AND MAY MIS-REPORT RAIN FOR SNOW...
$$

 *****  OTHER OBSERVATIONS SOUTHEAST NORTH DAKOTA *****

CITY           SKY/WX    TMP DP  RH WIND       PRES   REMARKS
COOPERSTOWN    NOT AVBL
VALLEY CITY    CLOUDY    63  57  82 NW8       30.31S
OAKES          NOT AVBL
GWINNER        CLOUDY    64  57  77 N8        30.32R
SHEYENNE NWR     N/A     62  55  79 N5        29.95S
BUFFALO        NOT AVBL
WYNDMERE       NOT AVBL
 ***** THE ABOVE OBSERVATIONS ARE NON NWS ARE NOT QUALITY
       CONTROLLED AND MAY MIS-REPORT RAIN FOR SNOW...
$$

  *****  WEATHER ACROSS NORTHERN MINNESOTA  *****

CITY           SKY/WX    TMP DP  RH WIND       PRES   REMARKS
FLAG ISLAND    SUNNY     61  55  82 NW6       30.22S
WARROAD        SUNNY     64  57  77 W5        30.25S
ROSEAU         SUNNY     63  57  82 NW6       30.25S
HALLOCK        SUNNY     63  57  82 NW6       30.27S
THF RVR FALLS  CLOUDY    64  55  72 NW9       30.27R
HALSTAD          N/A     63  55  77 NW8         N/A
FOSSTON        CLOUDY    61  55  82 NW7       30.27S
BAUDETTE       SUNNY     65  60  84 NW8       30.23S
WASKISH        SUNNY     66  61  82 CALM      30.23S
CROOKSTON      CLOUDY    63  57  82 N7        30.28S
$$
  *****  WEATHER ACROSS CENTRAL AND WEST MINNESOTA  *****

CITY           SKY/WX    TMP DP  RH WIND       PRES   REMARKS
BEMIDJI        SUNNY     64  56  76 W7        30.24S
PARK RAPIDS    CLOUDY    62  56  80 NW7       30.24S
WADENA         CLOUDY    63  57  82 NW6       30.25R
DETROIT LAKES  MOSUNNY   61  55  82 NW8       30.28S
MOORHEAD       CLOUDY    63  61  94 NW7       30.29R
FERGUS FALLS   CLOUDY    61  55  82 N8        30.27S
ELBOW LAKE     CLOUDY    60  58  92 NW7       30.27S
MORRIS MN      PTSUNNY   64  61  88 NW7       30.26S
STAPLES        CLOUDY    63  55  77 NW6       30.24S
WHEATON        CLOUDY    61  55  82 NW8       30.30R
$$
  *****  WEATHER ELSEWHERE ACROSS MINNESOTA  *****

CITY           SKY/WX    TMP DP  RH WIND       PRES   REMARKS
DULUTH         MOSUNNY   64  54  69 NW7       30.18S
INTRNTL FALLS  SUNNY     64  58  80 NW6       30.20S
ELY            SUNNY     63  52  67 NW9       30.17S
CLOQUET        SUNNY     64  55  72 NW7       30.19S
BRAINERD       PTSUNNY   66  58  75 N6        30.23R
HIBBING        SUNNY     65  54  67 NW10      30.21R
ALEXANDRIA     CLOUDY    62  57  83 NW6       30.27R
SAINT CLOUD    CLOUDY    66  58  75 N8        30.21S
MINNEAPOLIS    CLOUDY    65  57  75 N7        30.20R
$$

  *****  WEATHER ACROSS SOUTH DAKOTA  *****

CITY           SKY/WX    TMP DP  RH WIND       PRES   REMARKS
SIOUX FALLS    PTSUNNY   65  58  78 N12       30.28R
BROOKINGS      NOT AVBL
WATERTOWN      CLOUDY    62  56  80 N8        30.30R
HURON          SUNNY     60  56  86 N8        30.31S
SISSETON         N/A     65  58  78 N10       30.28R
ABERDEEN       PTSUNNY   60  55  83 N8        30.32R
MITCHELL       SUNNY     61  56  83 NW9       30.32S
PIERRE         SUNNY     60  56  86 NW3       30.33R
MOBRIDGE       SUNNY     59  56  89 NW5       30.33R
RAPID CITY     MOSUNNY   62  54  74 SE7       30.35S
$$

  *****  SOME WEATHER IN NEARBY STATES *****

CITY           SKY/WX    TMP DP  RH WIND       PRES   REMARKS
GLASGOW MT     SUNNY     63  52  67 E10       30.28S
GREAT FALLS MT CLOUDY    62  43  49 CALM      30.25R
CHEYENNE WY    SUNNY     61  57  87 SW3       30.41R
SCOTTSBLUFF NE SUNNY     64  51  62 E12       30.35R
OMAHA NE       CLOUDY    65  56  72 N8        30.27R
DES MOINES IA  MOSUNNY   68  55  63 NE7       30.20R
DAVENPORT IA   SUNNY     64  54  69 N14       30.14R
CHICAGO IL     MOSUNNY   63  47  55 N16       30.05R
EAU CLAIRE WI  PTSUNNY   66  55  67 NW3       30.17S
LA CROSSE WI   NOT AVBL
$$

  *****  SOME NATIONAL WEATHER *****

CITY           SKY/WX    TMP DP  RH WIND       PRES   REMARKS
LA GUARDIA NY  PTSUNNY   75  65  70 SW12      29.55S
RALEIGH NC     MOSUNNY   80  66  62 W10       29.81R
ATLANTA GA     MOSUNNY   83  75  77 W9        29.95S HX  90
NEW ORLEANS LA MOSUNNY   86  76  71 NW14      30.10R HX  96
OKLAHOMA CITY  CLOUDY    78  60  53 E9        30.22R
ALBUQUERQUE NM CLOUDY    72  53  51 E14       30.40R
SALT LAKE CITY PTSUNNY   80  48  32 S9        30.18R
LOS ANGELES CA CLOUDY    69  64  84 CALM      30.04S
BOISE ID       PTSUNNY   71  44  37 CALM      30.06R
SEATTLE WA     SUNNY     62  25  24 N3        30.14R
$$

*** WEATHER ACROSS MANITOBA...SASKATCHEWAN AND ONTARIO ***
                ***ONTARIO***

CITY           SKY/WX    TMP DP  RH WIND       PRES   REMARKS
GERALDTON      PTSUNNY   59  50  72 W2        30.02F
THUNDER BAY    PTSUNNY   63  55  77 W7        30.09S
SIOUX LOOKOUT  CLOUDY    64  54  68 NW9       30.15S
TORONTO        LGT RAIN  59  55  88 N18G25    29.73R
BIG TROUT LK   LGT RAIN  61  55  82 NW5       30.05F
PICKLE LAKE    CLOUDY    59  54  82 NW8       30.09S
DRYDEN         MOSUNNY   61  54  77 W6        30.18S
KENORA         PTSUNNY   63  55  77 NW9       30.23S
$$
                *** MANITOBA***

CITY           SKY/WX    TMP DP  RH WIND       PRES   REMARKS
BRANDON        MOSUNNY   61  55  82 W5        30.33R
DAUPHIN        SUNNY     61  55  82 W8        30.31S
ISLAND LAKE    PTSUNNY   68  55  64 NW6       30.17S
PILOT MOUND      N/A     57  54  88 NW6         N/A
THE PAS        SUNNY     64  55  72 NW2       30.28S
THOMPSON       MOSUNNY   68  55  64 NW5       30.21S
WINNIPEG       MOSUNNY   63  57  82 NW7       30.28
LYNN LAKE      SUNNY     68  52  56 W7        30.24S
CHURCHILL      MOSUNNY   57  52  82 N12       30.06R
GILLAM         SUNNY     66  55  68 W9        30.11S
$$
                ***SASKATCHEWAN***

CITY           SKY/WX    TMP DP  RH WIND       PRES   REMARKS
ESTEVAN        MOSUNNY   63  57  82 SW2       30.34S
KINDERSLEY     MOSUNNY   64  57  77 SE5       30.28R
LLOYDMINSTER   SUNNY     64  59  82 SW8       30.27
PRINCE ALBERT  PTSUNNY   61  59  94 CALM      30.29S
REGINA         MOSUNNY   61  55  82 SE8       30.31S


USA.gov is the U.S. government's official web portal to all federal, state and local government web resources and services.